Regional Weather Roundup
Issued by NWS

Home | Current Version | Previous Version | Graphics & Text | Print | Product List | Glossary On
Versions: 1 2 3 4 5 6 7 8 9 10 11 12 13 14 15 16 17 18 19 20 21 22 23 24 25 26 27 28 29 30 31 32 33 34 35 36 37 38 39 40 41 42 43 44 45 46 47 48 49 50
000
ASUS45 KCYS 211810
RWRWY

WYOMING REGIONAL WEATHER ROUNDUP
NATIONAL WEATHER SERVICE CHEYENNE WY
1200 PM MDT THU AUG 21 2014

NOTE:  "FAIR" INDICATES FEW OR NO CLOUDS BELOW 12,000 FEET
WITH NO SIGNIFICANT WEATHER AND/OR OBSTRUCTIONS TO VISIBILITY.

WYZ001-211900-
YELLOWSTONE NATIONAL PARK

CITY           SKY/WX    TMP DP  RH WIND       PRES   REMARKS
LK YELLOWSTONE   N/A     49  46  90 CALM      30.24S
6HR MIN TEMP:  45; 6HR MAX TEMP:  49; 6HR PCP:  0.06;

W YELLOWSTONE  NOT AVBL

$$
WYZ002>013-054>058-071-098>099-211900-
NORTHERN WYOMING

CITY           SKY/WX    TMP DP  RH WIND       PRES   REMARKS
JACKSON        PTSUNNY   54  52  94 SW5       30.19S
CODY           CLOUDY    59  52  77 CALM      30.10S
GREYBULL       CLOUDY    69  51  52 W9        30.02S
6HR MIN TEMP:  60; 6HR MAX TEMP:  69;

WORLAND        CLOUDY    72  47  40 VRB6      30.02S
6HR MIN TEMP:  52; 6HR MAX TEMP:  72;

SHERIDAN       MOSUNNY   74  51  44 VRB7      30.04S
6HR MIN TEMP:  51; 6HR MAX TEMP:  74;

BUFFALO        MOSUNNY   71  49  45 N9        30.08S
6HR MIN TEMP:  52; 6HR MAX TEMP:  71;

GILLETTE       PTSUNNY   74  52  46 NE7       30.03S
6HR MIN TEMP:  55; 6HR MAX TEMP:  74;

HULETT         FAIR      75  54  46 MISG      30.03
NEWCASTLE      FAIR      81  46  30 MISG      30.00

$$
WYZ014>020-022>026-101>103-211900-
CENTRAL WYOMING

CITY           SKY/WX    TMP DP  RH WIND       PRES   REMARKS
BIG PINEY      PTSUNNY   59  45  59 W9        30.22F
6HR MIN TEMP:  46; 6HR MAX TEMP:  59; 6HR PCP: TRACE;

PINEDALE       CLOUDY    59  45  58 W8        30.23S
DUBOIS         CLOUDY    54  46  76 N14       30.18S
LANDER         CLOUDY    76  44  32 SW9       30.05F
6HR MIN TEMP:  54; 6HR MAX TEMP:  76;

RIVERTON       MOSUNNY   72  41  32 SE8       30.07F
6HR MIN TEMP:  56; 6HR MAX TEMP:  72;

CASPER         PTSUNNY   78  44  29 SW21G29   30.08S
6HR MIN TEMP:  52; 6HR MAX TEMP:  78;

DOUGLAS        MOSUNNY   81  42  25 W17       30.06S
6HR MIN TEMP:  57; 6HR MAX TEMP:  81;


$$
WYZ021-027>030-104>119-211900-
SOUTHERN WYOMING

CITY           SKY/WX    TMP DP  RH WIND       PRES   REMARKS
EVANSTON       PTSUNNY   65  45  48 SW18      30.24S
6HR MIN TEMP:  50; 6HR MAX TEMP:  65;

KEMMERER       PTCLDY    61  45  55 W6        30.25S
FORT BRIDGER   MOCLDY    67  48  50 W17G23    30.26S
ROCK SPRINGS   PTSUNNY   69  41  36 W14       30.21F
6HR MIN TEMP:  47; 6HR MAX TEMP:  69;

DIXON          FAIR      70  48  45 SW12G20   30.24F
RAWLINS        SUNNY     71  44  37 SW17G28   30.20F
6HR MIN TEMP:  48; 6HR MAX TEMP:  71;

SARATOGA       FAIR      68  46  45 MISG      30.23F
LARAMIE        PTSUNNY   68  42  38 W17       30.22S
6HR MIN TEMP:  51; 6HR MAX TEMP:  69;

CHEYENNE       MOSUNNY   79  42  26 W10G20    30.15S
6HR MIN TEMP:  58; 6HR MAX TEMP:  79;

TORRINGTON     MOSUNNY   82  47  29 VRB5      30.02F
6HR MIN TEMP:  54; 6HR MAX TEMP:  82;

PINE BLUFFS    FAIR      79  43  27 NW10G21   30.10S

$$


USA.gov is the U.S. government's official web portal to all federal, state and local government web resources and services.